GW7204 Weather Reports


Display with metric or nautical units.
time (UTC)temp
F
wind
direction
speed
MPH
gust
MPH
rain 1hr
in
rain 24hr
in
rain mn
in
humidity
%
barometer
mb
20260508130308 42 132 0.0 0.0 0.00 0.00 0.00 99 1015.2
20260508125126 40 112 0.0 0.0 0.00 0.00 0.00 99 1015.5
20260508123936 39 116 0.0 0.0 0.00 0.00 0.00 99 1015.5
20260508123350 39 108 0.0 0.0 0.00 0.00 0.00 99 1015.2
20260508122731 39 113 0.0 0.0 0.00 0.00 0.00 99 1015.2
20260508122120 38 115 0.0 0.0 0.00 0.00 0.00 99 1015.5
20260508121537 37 115 0.0 0.0 0.00 0.00 0.00 99 1015.5
20260508120920 37 116 0.0 0.0 0.00 0.00 0.00 99 1015.2
20260508115710 35 103 0.0 0.0 0.00 0.00 0.00 99 1015.2
20260508115148 35 116 0.0 0.0 0.00 0.00 0.00 99 1014.9
20260508114519 34 120 0.0 0.0 0.00 0.00 0.00 99 1014.9
20260508113930 33 119 0.0 0.0 0.00 0.00 0.00 99 1014.9
20260508113316 33 119 0.0 0.0 0.00 0.00 0.00 99 1014.9
20260508112719 32 119 0.0 0.0 0.00 0.00 0.00 99 1014.5
20260508112143 32 123 0.0 0.0 0.00 0.00 0.00 99 1014.5
20260508111542 32 108 0.0 0.0 0.00 0.00 0.00 99 1014.5
20260508110922 32 104 0.0 0.0 0.00 0.00 0.00 99 1014.5
20260508110326 32 100 0.0 0.0 0.00 0.00 0.00 99 1014.5
20260508105142 32 116 0.0 0.0 0.00 0.00 0.00 99 1014.5
20260508103936 31 92 0.0 0.0 0.00 0.00 0.00 99 1014.2
20260508103338 31 110 0.0 0.0 0.00 0.00 0.00 99 1014.2
20260508102715 31 109 0.0 0.0 0.00 0.00 0.00 99 1014.2
20260508102115 31 109 0.0 0.0 0.00 0.00 0.00 99 1014.2
20260508101512 31 110 0.0 0.0 0.00 0.00 0.00 99 1014.5
20260508100938 31 104 0.0 0.0 0.00 0.00 0.00 99 1014.2
20260508100331 32 104 0.0 0.0 0.00 0.00 0.00 99 1014.5
20260508095748 32 102 0.0 0.0 0.00 0.00 0.00 99 1014.2
20260508095130 32 107 0.0 0.0 0.00 0.00 0.00 99 1014.2
20260508094522 32 100 0.0 0.0 0.00 0.00 0.00 99 1014.2
20260508093943 32 104 0.0 0.0 0.00 0.00 0.00 99 1014.2
20260508092722 32 111 0.0 0.0 0.00 0.00 0.00 99 1014.5
20260508092142 32 116 0.0 0.0 0.00 0.00 0.00 99 1014.2
20260508091528 32 119 0.0 0.0 0.00 0.00 0.00 99 1014.2
20260508090932 32 109 0.0 0.0 0.00 0.00 0.00 99 1013.8
20260508085139 32 114 0.0 0.0 0.00 0.00 0.00 99 1013.8
20260508084547 32 112 0.0 0.0 0.00 0.00 0.00 99 1014.2
20260508083912 33 104 0.0 0.0 0.00 0.00 0.00 99 1014.2
20260508083313 33 106 0.0 0.0 0.00 0.00 0.00 99 1013.8
20260508082735 33 99 0.0 0.0 0.00 0.00 0.00 99 1014.2
20260508082150 33 102 0.0 0.0 0.00 0.00 0.00 99 1014.2
20260508081537 33 107 0.0 0.0 0.00 0.00 0.00 99 1014.2
20260508080328 33 99 0.0 0.0 0.00 0.00 0.00 99 1014.2
20260508075731 33 110 0.0 0.0 0.00 0.00 0.00 99 1013.8
20260508075120 34 90 0.0 0.0 0.00 0.00 0.00 99 1014.2
20260508074529 34 112 0.0 0.0 0.00 0.00 0.00 99 1014.2
20260508073327 34 125 0.0 0.0 0.00 0.00 0.00 99 1014.2
20260508072733 34 121 0.0 0.0 0.00 0.00 0.00 99 1014.2
20260508072115 34 122 0.0 0.0 0.00 0.00 0.00 99 1014.2
20260508071537 34 115 0.0 0.0 0.00 0.00 0.00 99 1014.5
20260508070951 34 104 0.0 0.0 0.00 0.00 0.00 99 1014.2
20260508070338 34 98 0.0 0.0 0.00 0.00 0.00 99 1014.5
20260508065738 34 78 0.0 0.0 0.00 0.00 0.00 99 1014.2
20260508065133 34 120 0.0 0.0 0.00 0.00 0.00 99 1014.5
20260508064520 34 127 0.0 0.0 0.00 0.00 0.00 99 1014.5
20260508063925 35 100 0.0 0.0 0.00 0.00 0.00 99 1014.5
20260508063318 35 112 0.0 0.0 0.00 0.00 0.00 99 1014.5
20260508062742 35 119 0.0 0.0 0.00 0.00 0.00 99 1014.5
20260508062146 35 114 0.0 0.0 0.00 0.00 0.00 99 1014.9
20260508061530 35 84 0.0 0.0 0.00 0.00 0.00 99 1014.5
20260508060909 35 102 0.0 0.0 0.00 0.00 0.00 99 1014.5
20260508060341 35 108 0.0 0.0 0.00 0.00 0.00 99 1014.5
20260508055751 35 114 0.0 0.0 0.00 0.00 0.00 99 1014.5
20260508055141 35 111 0.0 0.0 0.00 0.00 0.00 99 1014.5
20260508054544 35 113 0.0 0.0 0.00 0.00 0.00 98 1014.9
20260508052738 36 105 0.0 0.0 0.00 0.00 0.00 98 1015.2
20260508052132 36 105 0.0 0.0 0.00 0.00 0.00 98 1014.9
20260508051526 36 105 0.0 0.0 0.00 0.00 0.00 98 1015.2
20260508050945 36 105 0.0 0.0 0.00 0.00 0.00 98 1015.2
20260508050309 36 105 0.0 0.0 0.00 0.00 0.00 98 1015.2
20260508045724 37 122 0.0 0.0 0.00 0.00 0.00 98 1015.2
20260508045128 37 140 0.0 0.0 0.00 0.00 0.00 97 1015.2
20260508044542 37 130 0.0 0.0 0.00 0.00 0.00 97 1014.9
20260508043936 37 99 0.0 0.0 0.00 0.00 0.00 97 1014.9
20260508043347 37 111 0.0 0.0 0.00 0.00 0.00 97 1014.9
20260508042723 37 104 0.0 0.0 0.00 0.00 0.00 96 1015.2
20260508042141 37 104 0.0 0.0 0.00 0.00 0.00 96 1014.9
20260508041532 38 104 0.0 0.0 0.00 0.00 0.00 96 1014.9
20260508040318 38 102 0.0 0.0 0.00 0.00 0.00 96 1015.2
20260508035120 38 110 0.0 0.0 0.00 0.00 0.00 95 1015.2
20260508034526 38 109 0.0 0.0 0.00 0.00 0.00 95 1015.2
20260508033916 38 114 0.0 0.0 0.00 0.00 0.00 95 1015.2
20260508033321 38 110 0.0 0.0 0.00 0.00 0.00 94 1015.2
20260508032734 38 104 0.0 0.0 0.00 0.00 0.00 93 1014.9
20260508032147 39 104 0.0 0.0 0.00 0.00 0.00 93 1015.2
20260508031526 39 104 0.0 0.0 0.00 0.00 0.00 92 1014.9
20260508030931 40 104 0.0 0.0 0.00 0.00 0.00 92 1015.2
20260508030311 40 105 0.0 0.0 0.00 0.00 0.00 91 1014.9
20260508025719 40 113 0.0 0.0 0.00 0.00 0.00 91 1015.2
20260508025114 40 113 0.0 0.0 0.00 0.00 0.00 89 1014.9
20260508024525 40 123 0.0 0.0 0.00 0.00 0.00 89 1014.9
20260508023946 40 119 0.0 0.0 0.00 0.00 0.00 89 1014.9
20260508023341 41 121 0.0 0.0 0.00 0.00 0.00 89 1014.9
20260508022723 41 99 0.0 0.0 0.00 0.00 0.00 88 1014.9
20260508021515 42 105 0.0 0.0 0.00 0.00 0.00 86 1014.9
20260508020945 42 104 0.0 0.0 0.00 0.00 0.00 85 1014.9
20260508020349 43 93 0.0 0.0 0.00 0.00 0.00 85 1014.5
20260508015738 43 104 0.0 0.0 0.00 0.00 0.00 84 1014.5
20260508015145 44 104 0.0 0.0 0.00 0.00 0.00 83 1014.5
20260508014517 44 103 0.0 0.0 0.00 0.00 0.00 82 1014.5
20260508012725 45 108 0.0 0.0 0.00 0.00 0.00 79 1014.2
20260508011528 46 105 0.0 0.0 0.00 0.00 0.00 76 1013.8
20260508010935 47 105 0.0 0.0 0.00 0.00 0.00 75 1013.8
20260508010349 48 108 0.0 0.0 0.00 0.00 0.00 74 1013.8
20260508005736 48 105 0.0 0.0 0.00 0.00 0.00 71 1013.8
20260508003908 51 104 0.0 0.0 0.00 0.00 0.00 68 1013.5
20260508003340 53 95 0.0 0.0 0.00 0.00 0.00 64 1013.5
20260508002734 55 109 0.0 0.0 0.00 0.00 0.00 48 1013.5
20260508002110 56 121 0.0 0.0 0.00 0.00 0.00 43 1013.8
20260508001532 57 145 0.0 1.0 0.00 0.00 0.00 42 1013.5
20260508000949 58 105 0.0 0.0 0.00 0.00 0.00 41 1013.5
20260508000335 58 39 1.0 1.0 0.00 0.00 0.00 41 1013.5
20260507235747 58 119 0.0 0.0 0.00 0.00 0.00 40 1013.5
20260507235119 58 29 2.0 2.0 0.00 0.00 0.00 39 1013.5
20260507234551 58 12 4.0 4.0 0.00 0.00 0.00 38 1013.5
20260507233938 59 271 4.0 4.0 0.00 0.00 0.00 39 1013.5
20260507233347 59 296 1.0 2.0 0.00 0.00 0.00 38 1013.5
20260507231535 59 8 3.0 4.0 0.00 0.00 0.00 38 1013.2
20260507225744 60 10 4.0 4.0 0.00 0.00 0.00 37 1013.5
20260507225120 60 32 1.0 1.0 0.00 0.00 0.00 37 1013.5
20260507224527 60 324 5.0 7.0 0.00 0.00 0.00 36 1013.5
20260507223918 60 291 6.0 7.0 0.00 0.00 0.00 40 1013.5
20260507223338 59 7 2.0 3.0 0.00 0.00 0.00 38 1013.2
20260507222719 60 18 3.0 3.0 0.00 0.00 0.00 38 1013.5
20260507221516 61 181 2.0 3.0 0.00 0.00 0.00 37 1013.2
20260507220312 60 196 2.0 2.0 0.00 0.00 0.00 37 1013.5
20260507215738 60 254 7.0 10.0 0.00 0.00 0.00 37 1013.2
20260507215144 60 357 4.0 7.0 0.00 0.00 0.00 37 1013.2
20260507213944 61 85 4.0 6.0 0.00 0.00 0.00 36 1012.8
20260507212737 61 239 4.0 4.0 0.00 0.00 0.00 37 1012.8
20260507211532 61 355 6.0 7.0 0.00 0.00 0.00 38 1012.8
20260507210928 62 160 3.0 3.0 0.00 0.00 0.00 35 1012.8
20260507210344 61 214 3.0 4.0 0.00 0.00 0.00 35 1012.5
20260507204547 61 236 4.0 9.0 0.00 0.00 0.00 34 1012.8
20260507202737 62 359 4.0 6.0 0.00 0.00 0.00 35 1012.8
20260507202152 62 184 4.0 6.0 0.00 0.00 0.00 33 1012.5
20260507201538 61 20 4.0 4.0 0.00 0.00 0.00 34 1012.8
20260507200938 61 290 4.0 7.0 0.00 0.00 0.00 35 1012.8
20260507195752 60 6 4.0 4.0 0.00 0.00 0.00 36 1012.8
20260507195151 61 262 6.0 7.0 0.00 0.00 0.00 36 1012.8
20260507194514 60 344 4.0 4.0 0.00 0.00 0.00 35 1012.8
20260507193951 60 274 6.0 10.0 0.00 0.00 0.00 36 1012.8
20260507192732 62 250 4.0 6.0 0.00 0.00 0.00 34 1012.8
20260507192146 61 20 4.0 6.0 0.00 0.00 0.00 33 1012.8
20260507191535 62 140 3.0 6.0 0.00 0.00 0.00 34 1012.8
20260507190936 60 149 2.0 4.0 0.00 0.00 0.00 36 1012.8
20260507185724 60 354 4.0 6.0 0.00 0.00 0.00 33 1013.2
20260507185150 60 29 3.0 4.0 0.00 0.00 0.00 33 1012.8
20260507184549 61 223 3.0 6.0 0.00 0.00 0.00 34 1012.8
20260507183952 62 318 8.0 9.0 0.00 0.00 0.00 35 1013.2
20260507183308 61 179 2.0 3.0 0.00 0.00 0.00 37 1013.2
20260507182714 60 206 3.0 4.0 0.00 0.00 0.00 36 1013.2
20260507182150 60 281 4.0 7.0 0.00 0.00 0.00 35 1012.8
20260507181510 59 104 1.0 2.0 0.00 0.00 0.00 34 1012.8
20260507180928 59 31 4.0 6.0 0.00 0.00 0.00 34 1012.8
20260507180324 60 49 4.0 4.0 0.00 0.00 0.00 34 1012.8
20260507174520 60 22 7.0 10.0 0.00 0.00 0.00 38 1012.8
20260507173945 60 218 4.0 7.0 0.00 0.00 0.00 41 1012.8
20260507172732 61 215 3.0 3.0 0.00 0.00 0.00 39 1012.5
20260507172129 58 34 4.0 4.0 0.00 0.00 0.00 44 1012.5
20260507170911 60 344 3.0 4.0 0.00 0.00 0.00 40 1012.8
20260507170321 60 206 2.0 2.0 0.00 0.00 0.00 41 1012.8
20260507165750 59 128 0.0 0.0 0.00 0.00 0.00 40 1012.8
20260507165135 59 247 2.0 3.0 0.00 0.00 0.00 40 1012.8
20260507163923 58 145 3.0 3.0 0.00 0.00 0.00 45 1012.8
20260507162722 58 352 5.0 7.0 0.00 0.00 0.00 43 1012.8
20260507162152 58 268 4.0 6.0 0.00 0.00 0.00 42 1012.8
20260507161555 58 112 3.0 6.0 0.00 0.00 0.00 42 1012.8
20260507160923 58 52 5.0 9.0 0.00 0.00 0.00 43 1012.8
20260507160346 57 156 3.0 4.0 0.00 0.00 0.00 44 1013.2
20260507155731 58 358 2.0 3.0 0.00 0.00 0.00 41 1012.8
20260507155123 58 264 4.0 7.0 0.00 0.00 0.00 42 1013.2
20260507154519 58 255 3.0 3.0 0.00 0.00 0.00 48 1012.8
20260507153911 57 54 4.0 6.0 0.00 0.00 0.00 44 1013.2
20260507153316 56 328 5.0 6.0 0.00 0.00 0.00 43 1012.8
20260507152750 56 8 4.0 6.0 0.00 0.00 0.00 46 1012.8
20260507151534 55 210 1.0 2.0 0.00 0.00 0.00 46 1012.8
20260507150347 55 346 1.0 2.0 0.00 0.00 0.00 50 1012.8
20260507145715 54 44 2.0 2.0 0.00 0.00 0.00 48 1013.2
20260507145111 54 39 4.0 4.0 0.00 0.00 0.00 48 1012.8
20260507144515 54 128 0.0 0.0 0.00 0.00 0.00 49 1013.2
20260507143939 54 17 3.0 4.0 0.00 0.00 0.00 48 1012.8
20260507143320 54 346 4.0 6.0 0.00 0.00 0.00 48 1013.2
20260507142123 53 47 1.0 2.0 0.00 0.00 0.00 51 1012.8
20260507141517 53 14 2.0 2.0 0.00 0.00 0.00 53 1013.2
20260507140926 52 144 1.0 3.0 0.00 0.00 0.00 53 1013.2
20260507140342 52 82 1.0 1.0 0.00 0.00 0.00 58 1013.5
20260507135143 52 123 0.0 0.0 0.00 0.00 0.00 59 1013.2
20260507134519 51 86 0.0 0.0 0.00 0.00 0.00 66 1013.5
20260507133319 50 296 0.0 0.0 0.00 0.00 0.00 71 1013.8
20260507132743 49 85 0.0 0.0 0.00 0.00 0.00 73 1013.8
20260507132122 48 111 0.0 0.0 0.00 0.00 0.00 75 1013.8